COSMOS 2571

Satellite information

Favourite Embed

Satellite Type and Status

PAYLOADIN ORBIT

Key statistics

Satellite COSMOS 2571 at a glance.

Uptime

564

Days in orbit

Revolutions

≈ 14.0

Per day

Orbit

LEO

Low Earth Orbit

Inclination

67.1

Latest

Satellite identification and parameters

Extended collection of information and parameters for COSMOS 2571.

Object identification

Identified? True

Debris? False

Object name: COSMOS 2571

International designator: 2023-165C

Object number (NORAD): 58172

Object ID (CCSDS): 58172

Country: COMMONWEALTH OF INDEPENDENT STATES (CIS)

Current information (Y/N): Y

RCS size: MEDIUM

Orbital parameters

Period: 103.058 minutes

Inclination: 67.1485 deg

SMA: 7281.384 km

Apoapsis: 917.858 km

Periapsis: 888.64 km

RAAN: 181.5713 deg

Eccentricy: 0.0020063

Argument of periapsis: 279.3451 deg

Mean anomaly: 80.5366 deg

Mean motion: 13.97274899 rev/day

Mean motion (dot): 0.00000006 rev/day2

B* drag term: 0.000057908 1/REarth

Two-line elements (TLE)

Creation date: May 12, 2025, 7:36 p.m.

Reference frame: TEME

Reference center: EARTH

Epoch: May 12, 2025, 6:05 p.m. UTC

TLE line 0: 0 COSMOS 2571

TLE line 1: 1 58172U 23165C 25132.75390318 .00000006 00000-0 57908-4 0 9998

TLE line 2: 2 58172 67.1485 181.5713 0020063 279.3451 80.5366 13.97274899 78411

Live tracking on map

Real-time ground track for satellite COSMOS 2571.

In-orbit conjunctions

There are no conjunctions computed for COSMOS 2571, at the moment. Check back to stay up to date, as we update our databases every day.

Go to all conjunctions

Associated space launch

Note: Payload identity uncertain. Multiple other military payloads that are not identified may be on board. Lotos-S1 spacecraft is a part of the Liana constellation, designed for orbital electronic intelligence.

COSMOS 2571 was lifted into orbit during the mission ‘Soyuz 2.1b | Kosmos 2570 (Lotos-S1 #8)’, on board a Soyuz 2.1b space rocket.

The launch took place on Oct. 27, 2023, 6:04 a.m. from 43/3 (43L).

For more information about the launch, click the button.

Launch to space Soyuz 2.1b | Kosmos 2570 (Lotos-S1 #8)
Soyuz 2.1b | Kosmos 2570 (Lotos-S1 #8)

Agency: N/A

Status: Launch Successful

Launch date: Oct. 27, 2023, 6:04 a.m. UTC

Rocket: Soyuz 2.1b

Launch pad: 43/3 (43L)

Location: Plesetsk Cosmodrome, Russian Federation

...

Latest news about this satellite

There are no fresh news available about this satellite. Check back as we update our databases every day.


Newsletter sign-up

Weekly statistics, charts and insights to help you stay on top of the space industry.